Washington County, Texas, United States
Lat: 30.22N, Lon: 96.44W
Wx Zone: TXZ197
Local Info
Past Weather Observations for Today

NOTE: This archive is for the closest National Weather Service station to Washington County. Information may differ from the station used for current weather conditions.

Click here for Long-term Archive

Time Weather Temperature Dewpoint Humidity Pressure Winds Precip Visibility
21:55
Clear
81°F / 27°C 66°F / 19°C 62% 29.95 in
(1014 mb)
Calm - 10SM
21:35
Clear
81°F / 27°C 70°F / 21°C 70% 29.95 in
(1014 mb)
Calm - 10SM
21:15
Clear
82°F / 28°C 68°F / 20°C 62% 29.95 in
(1014 mb)
Calm - 10SM
20:55
Clear
82°F / 28°C 66°F / 19°C 58% 29.95 in
(1014 mb)
Calm - 10SM
20:35
Clear
84°F / 29°C 68°F / 20°C 58% 29.95 in
(1014 mb)
Calm - 10SM
20:15
Clear
84°F / 29°C 66°F / 19°C 55% 29.92 in
(1013 mb)
Calm - 10SM
19:55
Clear
88°F / 31°C 66°F / 19°C 49% 29.92 in
(1013 mb)
Calm - 10SM
19:35
Clear
88°F / 31°C 66°F / 19°C 49% 29.92 in
(1013 mb)
Calm - 10SM
19:15
Clear
90°F / 32°C 64°F / 18°C 43% 29.92 in
(1013 mb)
E 3.5 mph
(E 6 kph)
- 10SM
18:55
Clear
91°F / 33°C 63°F / 17°C 38% 29.92 in
(1013 mb)
E 4.6 mph
(E 7 kph)
- 10SM
18:35
Clear
93°F / 34°C 61°F / 16°C 34% 29.92 in
(1013 mb)
E 4.6 mph
(E 7 kph)
- 10SM
18:15
Clear
95°F / 35°C 61°F / 16°C 32% 29.92 in
(1013 mb)
ESE 5.8 mph
(ESE 9 kph)
- 10SM
17:55
Clear
95°F / 35°C 61°F / 16°C 32% 29.92 in
(1013 mb)
ESE 5.8 mph
(ESE 9 kph)
- 10SM
17:35
Clear
97°F / 36°C 59°F / 15°C 28% 29.92 in
(1013 mb)
E 3.5 mph
(E 6 kph)
- 10SM
17:15
Clear
97°F / 36°C 59°F / 15°C 28% 29.92 in
(1013 mb)
E 5.8 mph
(E 9 kph)
- 10SM
16:55
Clear
97°F / 36°C 59°F / 15°C 28% 29.92 in
(1013 mb)
E 4.6 mph
(E 7 kph)
- 10SM
16:35
Clear
97°F / 36°C 59°F / 15°C 28% 29.92 in
(1013 mb)
Calm - 10SM
16:15
Clear
97°F / 36°C 59°F / 15°C 28% 29.92 in
(1013 mb)
E 4.6 mph
(E 7 kph)
- 10SM
15:55
Clear
97°F / 36°C 59°F / 15°C 28% 29.92 in
(1013 mb)
ENE 6.9 mph
(ENE 11 kph)
- 10SM
15:35
Clear
97°F / 36°C 59°F / 15°C 28% 29.92 in
(1013 mb)
NNE 5.8 mph
(NNE 9 kph)
- 10SM
15:15
Clear
97°F / 36°C 59°F / 15°C 28% 29.95 in
(1014 mb)
ENE 8.1 mph
(ENE 13 kph)
- 10SM
14:55
Clear
97°F / 36°C 61°F / 16°C 30% 29.95 in
(1014 mb)
E 5.8 mph
(E 9 kph)
- 10SM
14:35
Clear
97°F / 36°C 61°F / 16°C 30% 29.95 in
(1014 mb)
NE 8.1 mph
(NE 13 kph)
- 10SM
14:15
Clear
97°F / 36°C 61°F / 16°C 30% 29.95 in
(1014 mb)
NNE 8.1 mph
(NNE 13 kph)
- 10SM
13:55
Clear
97°F / 36°C 61°F / 16°C 30% 29.95 in
(1014 mb)
N 6.9 mph
(N 11 kph)
- 10SM
13:35
Clear
95°F / 35°C 61°F / 16°C 32% 29.98 in
(1015 mb)
NE 8.1 mph
(NE 13 kph)
- 10SM
13:15
Clear
95°F / 35°C 64°F / 18°C 36% 29.98 in
(1015 mb)
E 8.1 mph
(E 13 kph)
- 10SM
12:55
Clear
93°F / 34°C 63°F / 17°C 36% 29.98 in
(1015 mb)
NE 6.9 mph
(NE 11 kph)
- 10SM
12:35
Clear
93°F / 34°C 63°F / 17°C 36% 30.01 in
(1016 mb)
N 4.6 mph
(N 7 kph)
- 10SM
12:15
Clear
93°F / 34°C 63°F / 17°C 36% 30.01 in
(1016 mb)
E 5.8 mph
(E 9 kph)
- 10SM
11:55
Clear
93°F / 34°C 63°F / 17°C 36% 30.01 in
(1016 mb)
ENE 4.6 mph
(ENE 7 kph)
- 10SM
11:35
Clear
93°F / 34°C 64°F / 18°C 39% 30.04 in
(1017 mb)
ENE 4.6 mph
(ENE 7 kph)
- 10SM
11:15
Clear
91°F / 33°C 64°F / 18°C 41% 30.04 in
(1017 mb)
NE 6.9 mph
(NE 11 kph)
- 10SM
10:55
Clear
91°F / 33°C 64°F / 18°C 41% 30.04 in
(1017 mb)
ESE 5.8 mph
(ESE 9 kph)
- 10SM
10:35
Clear
91°F / 33°C 66°F / 19°C 44% 30.04 in
(1017 mb)
ESE 6.9 mph
(ESE 11 kph)
- 10SM
10:15
Clear
90°F / 32°C 68°F / 20°C 49% 30.04 in
(1017 mb)
E 6.9 mph
(E 11 kph)
- 10SM
09:55
Clear
88°F / 31°C 68°F / 20°C 52% 30.04 in
(1017 mb)
ENE 4.6 mph
(ENE 7 kph)
- 10SM
09:35
Clear
86°F / 30°C 68°F / 20°C 55% 30.04 in
(1017 mb)
E 6.9 mph
(E 11 kph)
- 10SM
09:15
Clear
86°F / 30°C 68°F / 20°C 55% 30.04 in
(1017 mb)
ENE 8.1 mph
(ENE 13 kph)
- 10SM
08:55
Clear
84°F / 29°C 68°F / 20°C 58% 30.04 in
(1017 mb)
E 8.1 mph
(E 13 kph)
- 10SM
08:35
Clear
84°F / 29°C 68°F / 20°C 58% 30.04 in
(1017 mb)
E 6.9 mph
(E 11 kph)
- 10SM
08:15
Clear
82°F / 28°C 68°F / 20°C 62% 30.01 in
(1016 mb)
E 4.6 mph
(E 7 kph)
- 10SM
07:55
Clear
81°F / 27°C 68°F / 20°C 66% 30.01 in
(1016 mb)
Calm - 10SM
07:35
Clear
79°F / 26°C 68°F / 20°C 70% 30.01 in
(1016 mb)
ENE 3.5 mph
(ENE 6 kph)
- 10SM
07:15
Clear
77°F / 25°C 68°F / 20°C 74% 30.01 in
(1016 mb)
Calm - 10SM
06:55
Clear
75°F / 24°C 68°F / 20°C 78% 30.01 in
(1016 mb)
Calm - 10SM
06:35
Clear
73°F / 23°C 68°F / 20°C 83% 30.01 in
(1016 mb)
Calm - 10SM
06:15
Clear
73°F / 23°C 66°F / 19°C 78% 30.01 in
(1016 mb)
Calm - 10SM
05:55
Clear
72°F / 22°C 68°F / 20°C 88% 29.98 in
(1015 mb)
Calm - 10SM
05:35
Clear
72°F / 22°C 68°F / 20°C 88% 29.98 in
(1015 mb)
Calm - 10SM
05:15
Clear
73°F / 23°C 68°F / 20°C 83% 29.98 in
(1015 mb)
Calm - 10SM
04:55
Clear
73°F / 23°C 68°F / 20°C 83% 29.98 in
(1015 mb)
Calm - 10SM
04:35
Clear
72°F / 22°C 68°F / 20°C 88% 29.98 in
(1015 mb)
NW 3.5 mph
(NW 6 kph)
- 10SM
04:15
Clear
73°F / 23°C 68°F / 20°C 83% 29.98 in
(1015 mb)
Calm - 10SM
03:55
Clear
73°F / 23°C 66°F / 19°C 78% 29.98 in
(1015 mb)
Calm - 10SM
03:35
Clear
75°F / 24°C 68°F / 20°C 78% 29.98 in
(1015 mb)
Calm - 10SM
03:15
Clear
75°F / 24°C 68°F / 20°C 78% 29.98 in
(1015 mb)
Calm - 10SM
02:55
Clear
75°F / 24°C 68°F / 20°C 78% 29.98 in
(1015 mb)
Calm - 10SM
02:35
Clear
73°F / 23°C 70°F / 21°C 89% 29.98 in
(1015 mb)
Calm - 10SM
02:15
Clear
75°F / 24°C 68°F / 20°C 78% 29.98 in
(1015 mb)
Calm - 10SM
01:55
Clear
75°F / 24°C 68°F / 20°C 78% 29.98 in
(1015 mb)
Calm - 10SM
01:35
Clear
75°F / 24°C 66°F / 19°C 74% 29.98 in
(1015 mb)
Calm - 10SM
01:15
Clear
75°F / 24°C 68°F / 20°C 78% 29.98 in
(1015 mb)
Calm - 10SM
00:55
Clear
77°F / 25°C 68°F / 20°C 74% 29.98 in
(1015 mb)
Calm - 10SM
00:35
Clear
79°F / 26°C 68°F / 20°C 70% 30.01 in
(1016 mb)
Calm - 10SM
00:15
Clear
79°F / 26°C 68°F / 20°C 70% 30.01 in
(1016 mb)
Calm - 10SM
Time Weather Temperature Dewpoint Humidity Pressure Winds Precip Visibility


Weather for websites

WeatherForYou.com, LLC is not responsible for any damages or problems caused by this service. Current weather conditions are obtained from the closest station including government and personal stations which may have varying degrees of accuracy. Weather forecasts are derived from the NOAA NDFD. Like all things, this site belongs to Jesus Christ... He just trusts us to maintain it. If you have any questions or comments email webmaster@weatherforyou.com

Copyright © 2015, WeatherForYou.com LLC. All rights reserved.